Time,TemperatureF,DewpointF,PressureIn,WindDirection,WindDirectionDegrees,WindSpeedMPH,WindSpeedGustMPH,Humidity,HourlyPrecipIn,Conditions,Clouds,dailyrainin,SoftwareType,DateUTC
2013-11-24 00:02:00,25.1,19.8,30.44,NE,40,0.0,0.0,80,0.00,,,0.00,Wunderground v.1.15,2013-11-24 08:02:00,
2013-11-24 00:12:00,24.2,19.2,30.44,NE,40,0.0,0.0,81,0.00,,,0.00,Wunderground v.1.15,2013-11-24 08:12:00,
2013-11-24 00:22:00,23.9,19.5,30.44,NE,40,0.0,0.0,83,0.00,,,0.00,Wunderground v.1.15,2013-11-24 08:22:00,
2013-11-24 00:31:00,23.9,19.8,30.43,NE,40,0.0,0.0,84,0.00,,,0.00,Wunderground v.1.15,2013-11-24 08:31:00,
2013-11-24 00:41:00,24.1,20.0,30.43,NE,40,0.0,0.0,84,0.00,,,0.00,Wunderground v.1.15,2013-11-24 08:41:00,
2013-11-24 00:51:00,23.7,19.3,30.43,NE,40,0.0,0.0,83,0.00,,,0.00,Wunderground v.1.15,2013-11-24 08:51:00,
2013-11-24 01:02:00,22.7,18.0,30.43,NNE,24,0.0,0.0,82,0.00,,,0.00,Wunderground v.1.15,2013-11-24 09:02:00,
2013-11-24 01:11:00,21.9,17.5,30.43,North,5,0.0,0.0,83,0.00,,,0.00,Wunderground v.1.15,2013-11-24 09:11:00,
2013-11-24 01:21:00,21.3,17.2,30.43,North,5,0.0,0.0,84,0.00,,,0.00,Wunderground v.1.15,2013-11-24 09:21:00,
2013-11-24 01:31:00,21.0,17.2,30.43,North,5,0.0,0.0,85,0.00,,,0.00,Wunderground v.1.15,2013-11-24 09:31:00,
2013-11-24 01:41:00,21.3,18.0,30.43,North,5,0.0,0.0,87,0.00,,,0.00,Wunderground v.1.15,2013-11-24 09:41:00,
2013-11-24 01:52:00,21.8,18.8,30.43,North,5,0.0,0.0,88,0.00,,,0.00,Wunderground v.1.15,2013-11-24 09:52:00,
2013-11-24 02:01:00,22.7,19.7,30.43,North,5,0.0,0.0,88,0.00,,,0.00,Wunderground v.1.15,2013-11-24 10:01:00,
2013-11-24 02:11:00,22.6,19.0,30.43,North,5,0.0,0.0,86,0.00,,,0.00,Wunderground v.1.15,2013-11-24 10:11:00,
2013-11-24 02:21:00,22.2,18.7,30.43,North,5,0.0,0.0,86,0.00,,,0.00,Wunderground v.1.15,2013-11-24 10:21:00,
2013-11-24 02:31:00,22.0,18.2,30.43,North,5,0.0,0.0,85,0.00,,,0.00,Wunderground v.1.15,2013-11-24 10:31:00,
2013-11-24 02:41:00,21.4,17.9,30.43,North,10,0.0,0.0,86,0.00,,,0.00,Wunderground v.1.15,2013-11-24 10:41:00,
2013-11-24 02:51:00,21.6,18.3,30.42,NNE,13,0.0,0.0,87,0.00,,,0.00,Wunderground v.1.15,2013-11-24 10:51:00,
2013-11-24 03:01:00,21.7,18.4,30.42,NNE,13,0.0,0.0,87,0.00,,,0.00,Wunderground v.1.15,2013-11-24 11:01:00,
2013-11-24 03:11:00,21.7,18.4,30.42,NNE,13,0.0,0.0,87,0.00,,,0.00,Wunderground v.1.15,2013-11-24 11:11:00,
2013-11-24 03:21:00,21.9,18.6,30.42,NNE,13,0.0,0.0,87,0.00,,,0.00,Wunderground v.1.15,2013-11-24 11:21:00,
2013-11-24 03:31:00,22.2,19.2,30.42,NNE,13,0.0,0.0,88,0.00,,,0.00,Wunderground v.1.15,2013-11-24 11:31:00,
2013-11-24 03:41:00,22.0,18.5,30.42,NNE,13,0.0,0.0,86,0.00,,,0.00,Wunderground v.1.15,2013-11-24 11:41:00,
2013-11-24 03:51:00,21.3,17.8,30.42,NNE,13,0.0,0.0,86,0.00,,,0.00,Wunderground v.1.15,2013-11-24 11:51:00,
2013-11-24 04:02:00,21.0,17.7,30.42,NNE,13,0.0,0.0,87,0.00,,,0.00,Wunderground v.1.15,2013-11-24 12:02:00,
2013-11-24 04:11:00,21.1,18.1,30.42,NNE,13,0.0,0.0,88,0.00,,,0.00,Wunderground v.1.15,2013-11-24 12:11:00,
2013-11-24 04:21:00,21.6,18.9,30.41,NNE,13,0.0,0.0,89,0.00,,,0.00,Wunderground v.1.15,2013-11-24 12:21:00,
2013-11-24 04:32:00,22.2,19.2,30.41,NNE,13,0.0,0.0,88,0.00,,,0.00,Wunderground v.1.15,2013-11-24 12:32:00,
2013-11-24 04:41:00,22.5,19.5,30.41,NNE,13,0.0,0.0,88,0.00,,,0.00,Wunderground v.1.15,2013-11-24 12:41:00,
2013-11-24 04:51:00,22.5,19.2,30.41,NNE,13,0.0,0.0,87,0.00,,,0.00,Wunderground v.1.15,2013-11-24 12:51:00,
2013-11-24 05:01:00,22.0,18.5,30.41,NNE,13,0.0,0.0,86,0.00,,,0.00,Wunderground v.1.15,2013-11-24 13:01:00,
2013-11-24 05:11:00,21.1,17.6,30.41,NNE,13,0.0,0.0,86,0.00,,,0.00,Wunderground v.1.15,2013-11-24 13:11:00,
2013-11-24 05:21:00,20.4,16.9,30.41,NNE,13,0.0,0.0,86,0.00,,,0.00,Wunderground v.1.15,2013-11-24 13:21:00,
2013-11-24 05:31:00,20.1,17.1,30.41,NNE,13,0.0,0.0,88,0.00,,,0.00,Wunderground v.1.15,2013-11-24 13:31:00,
2013-11-24 05:41:00,20.4,17.7,30.41,NNE,13,0.0,0.0,89,0.00,,,0.00,Wunderground v.1.15,2013-11-24 13:41:00,
2013-11-24 05:51:00,21.3,18.8,30.41,NNE,13,0.0,0.0,90,0.00,,,0.00,Wunderground v.1.15,2013-11-24 13:51:00,
2013-11-24 06:01:00,21.5,18.8,30.41,NNE,13,0.0,0.0,89,0.00,,,0.00,Wunderground v.1.15,2013-11-24 14:01:00,
2013-11-24 06:11:00,20.8,17.8,30.42,NNE,13,0.0,0.0,88,0.00,,,0.00,Wunderground v.1.15,2013-11-24 14:11:00,
2013-11-24 06:21:00,20.7,18.0,30.41,NNE,13,0.0,0.0,89,0.00,,,0.00,Wunderground v.1.15,2013-11-24 14:21:00,
2013-11-24 06:31:00,20.5,17.8,30.41,NNE,13,0.0,0.0,89,0.00,,,0.00,Wunderground v.1.15,2013-11-24 14:31:00,
2013-11-24 06:41:00,20.3,17.3,30.41,NNE,13,0.0,0.0,88,0.00,,,0.00,Wunderground v.1.15,2013-11-24 14:41:00,
2013-11-24 06:51:00,19.8,16.8,30.41,NNE,13,0.0,0.0,88,0.00,,,0.00,Wunderground v.1.15,2013-11-24 14:51:00,
2013-11-24 07:01:00,19.4,16.4,30.41,NNE,13,0.0,0.0,88,0.00,,,0.00,Wunderground v.1.15,2013-11-24 15:01:00,
2013-11-24 07:12:00,19.1,16.4,30.41,NNE,13,0.0,0.0,89,0.00,,,0.00,Wunderground v.1.15,2013-11-24 15:12:00,
2013-11-24 07:21:00,19.0,16.3,30.41,North,5,0.0,0.0,89,0.00,,,0.00,Wunderground v.1.15,2013-11-24 15:21:00,
2013-11-24 07:32:00,19.2,16.7,30.42,North,5,0.0,0.0,90,0.00,,,0.00,Wunderground v.1.15,2013-11-24 15:32:00,
2013-11-24 07:42:00,19.5,17.0,30.42,North,5,0.0,0.0,90,0.00,,,0.00,Wunderground v.1.15,2013-11-24 15:42:00,
2013-11-24 07:52:00,20.4,18.2,30.42,North,9,0.0,0.0,91,0.00,,,0.00,Wunderground v.1.15,2013-11-24 15:52:00,
2013-11-24 08:01:00,21.3,19.1,30.42,North,9,0.0,0.0,91,0.00,,,0.00,Wunderground v.1.15,2013-11-24 16:01:00,
2013-11-24 08:11:00,22.2,20.0,30.42,North,9,0.0,0.0,91,0.00,,,0.00,Wunderground v.1.15,2013-11-24 16:11:00,
2013-11-24 08:21:00,23.3,21.1,30.42,North,9,0.0,0.0,91,0.00,,,0.00,Wunderground v.1.15,2013-11-24 16:21:00,
2013-11-24 08:31:00,24.3,22.1,30.43,North,9,0.0,0.0,91,0.00,,,0.00,Wunderground v.1.15,2013-11-24 16:31:00,
2013-11-24 08:41:00,25.3,22.8,30.43,North,11,0.0,0.0,90,0.00,,,0.00,Wunderground v.1.15,2013-11-24 16:41:00,
2013-11-24 08:51:00,26.0,23.2,30.44,NNE,15,0.0,0.0,89,0.00,,,0.00,Wunderground v.1.15,2013-11-24 16:51:00,
2013-11-24 09:01:00,26.0,22.4,30.44,ENE,62,0.0,0.0,86,0.00,,,0.00,Wunderground v.1.15,2013-11-24 17:01:00,
2013-11-24 09:11:00,26.6,23.0,30.44,NNE,19,0.0,0.0,86,0.00,,,0.00,Wunderground v.1.15,2013-11-24 17:11:00,
2013-11-24 09:21:00,27.0,23.1,30.44,ENE,72,0.0,0.0,85,0.00,,,0.00,Wunderground v.1.15,2013-11-24 17:21:00,
2013-11-24 09:31:00,27.0,22.8,30.44,East,89,0.0,2.0,84,0.00,,,0.00,Wunderground v.1.15,2013-11-24 17:31:00,
2013-11-24 09:41:00,26.9,22.4,30.43,East,94,0.0,0.0,83,0.00,,,0.00,Wunderground v.1.15,2013-11-24 17:41:00,
2013-11-24 09:51:00,27.1,22.9,30.43,ESE,114,0.0,1.0,84,0.00,,,0.00,Wunderground v.1.15,2013-11-24 17:51:00,
2013-11-24 10:02:00,27.4,22.9,30.43,East,101,0.0,0.0,83,0.00,,,0.00,Wunderground v.1.15,2013-11-24 18:02:00,
2013-11-24 10:11:00,28.0,23.5,30.43,East,90,0.0,1.0,83,0.00,,,0.00,Wunderground v.1.15,2013-11-24 18:11:00,
2013-11-24 10:21:00,28.7,23.9,30.43,SSE,148,0.0,0.0,82,0.00,,,0.00,Wunderground v.1.15,2013-11-24 18:21:00,
2013-11-24 10:31:00,29.4,24.3,30.43,SE,138,0.0,0.0,81,0.00,,,0.00,Wunderground v.1.15,2013-11-24 18:31:00,
2013-11-24 10:41:00,29.9,24.5,30.43,ESE,121,0.0,0.0,80,0.00,,,0.00,Wunderground v.1.15,2013-11-24 18:41:00,
2013-11-24 10:51:00,30.4,24.7,30.43,SSE,151,0.0,0.0,79,0.00,,,0.00,Wunderground v.1.15,2013-11-24 18:51:00,
2013-11-24 11:01:00,31.0,25.2,30.43,SSE,166,0.0,0.0,79,0.00,,,0.00,Wunderground v.1.15,2013-11-24 19:01:00,
2013-11-24 11:11:00,31.7,25.3,30.43,SE,144,0.0,0.0,77,0.00,,,0.00,Wunderground v.1.15,2013-11-24 19:11:00,
2013-11-24 11:21:00,32.2,25.5,30.42,ESE,113,0.0,1.0,76,0.00,,,0.00,Wunderground v.1.15,2013-11-24 19:21:00,
2013-11-24 11:31:00,32.5,25.5,30.42,East,99,1.0,1.0,75,0.00,,,0.00,Wunderground v.1.15,2013-11-24 19:31:00,
2013-11-24 11:41:00,32.9,25.5,30.42,ESE,113,1.0,1.0,74,0.00,,,0.00,Wunderground v.1.15,2013-11-24 19:41:00,
2013-11-24 11:51:00,33.6,25.9,30.41,SE,143,1.0,3.0,73,0.00,,,0.00,Wunderground v.1.15,2013-11-24 19:51:00,
2013-11-24 12:01:00,33.9,25.8,30.41,SSW,198,0.0,0.0,72,0.00,,,0.00,Wunderground v.1.15,2013-11-24 20:01:00,
2013-11-24 12:11:00,34.5,26.1,30.41,SSW,194,0.0,1.0,71,0.00,,,0.00,Wunderground v.1.15,2013-11-24 20:11:00,
2013-11-24 12:21:00,34.8,26.0,30.41,SSE,148,1.0,2.0,70,0.00,,,0.00,Wunderground v.1.15,2013-11-24 20:21:00,
2013-11-24 12:31:00,35.0,26.2,30.41,SSE,165,0.0,3.0,70,0.00,,,0.00,Wunderground v.1.15,2013-11-24 20:31:00,
2013-11-24 12:41:00,35.0,25.9,30.40,SSE,159,2.0,2.0,69,0.00,,,0.00,Wunderground v.1.15,2013-11-24 20:41:00,
2013-11-24 12:52:00,35.4,26.2,30.40,SSW,213,2.0,4.0,69,0.00,,,0.00,Wunderground v.1.15,2013-11-24 20:52:00,
2013-11-24 13:01:00,35.7,26.5,30.40,South,186,0.0,0.0,69,0.00,,,0.00,Wunderground v.1.15,2013-11-24 21:01:00,
2013-11-24 13:11:00,35.9,26.7,30.39,South,187,2.0,2.0,69,0.00,,,0.00,Wunderground v.1.15,2013-11-24 21:11:00,
2013-11-24 13:21:00,36.0,26.8,30.39,SSE,160,1.0,3.0,69,0.00,,,0.00,Wunderground v.1.15,2013-11-24 21:21:00,
2013-11-24 13:31:00,36.2,26.6,30.39,South,175,2.0,3.0,68,0.00,,,0.00,Wunderground v.1.15,2013-11-24 21:31:00,
2013-11-24 13:41:00,36.2,26.6,30.39,South,170,2.0,2.0,68,0.00,,,0.00,Wunderground v.1.15,2013-11-24 21:41:00,
2013-11-24 13:51:00,36.4,26.5,30.39,SE,146,2.0,3.0,67,0.00,,,0.00,Wunderground v.1.15,2013-11-24 21:51:00,
2013-11-24 14:01:00,36.8,26.9,30.39,South,182,1.0,1.0,67,0.00,,,0.00,Wunderground v.1.15,2013-11-24 22:01:00,
2013-11-24 14:11:00,37.0,26.7,30.39,South,188,1.0,1.0,66,0.00,,,0.00,Wunderground v.1.15,2013-11-24 22:11:00,
2013-11-24 14:21:00,37.0,26.3,30.39,SSW,205,1.0,1.0,65,0.00,,,0.00,Wunderground v.1.15,2013-11-24 22:21:00,
2013-11-24 14:32:00,37.3,26.6,30.39,SSW,204,0.0,0.0,65,0.00,,,0.00,Wunderground v.1.15,2013-11-24 22:32:00,
2013-11-24 14:41:00,37.4,26.3,30.39,SSW,199,0.0,0.0,64,0.00,,,0.00,Wunderground v.1.15,2013-11-24 22:41:00,
2013-11-24 14:51:00,37.6,26.5,30.39,SSW,205,0.0,0.0,64,0.00,,,0.00,Wunderground v.1.15,2013-11-24 22:51:00,
2013-11-24 15:02:00,37.6,26.5,30.39,SSW,200,0.0,0.0,64,0.00,,,0.00,Wunderground v.1.15,2013-11-24 23:02:00,
2013-11-24 15:11:00,37.7,26.6,30.39,SW,225,0.0,1.0,64,0.00,,,0.00,Wunderground v.1.15,2013-11-24 23:11:00,
2013-11-24 15:22:00,37.6,26.9,30.39,SW,229,0.0,0.0,65,0.00,,,0.00,Wunderground v.1.15,2013-11-24 23:22:00,
2013-11-24 15:31:00,37.1,26.4,30.39,SW,232,0.0,0.0,65,0.00,,,0.00,Wunderground v.1.15,2013-11-24 23:31:00,
2013-11-24 15:41:00,36.6,26.3,30.39,SW,230,0.0,0.0,66,0.00,,,0.00,Wunderground v.1.15,2013-11-24 23:41:00,
2013-11-24 15:52:00,36.1,25.8,30.39,SW,230,0.0,0.0,66,0.00,,,0.00,Wunderground v.1.15,2013-11-24 23:52:00,
2013-11-24 16:01:00,35.5,25.6,30.39,SW,230,0.0,0.0,67,0.00,,,0.00,Wunderground v.1.15,2013-11-25 00:01:00,
2013-11-24 16:11:00,34.9,25.0,30.39,SW,230,0.0,0.0,67,0.00,,,0.00,Wunderground v.1.15,2013-11-25 00:11:00,
2013-11-24 16:22:00,34.2,24.7,30.39,SW,230,0.0,0.0,68,0.00,,,0.00,Wunderground v.1.15,2013-11-25 00:22:00,
2013-11-24 16:32:00,33.6,24.5,30.39,West,276,0.0,0.0,69,0.00,,,0.00,Wunderground v.1.15,2013-11-25 00:32:00,
2013-11-24 16:41:00,33.1,24.4,30.39,NW,306,0.0,0.0,70,0.00,,,0.00,Wunderground v.1.15,2013-11-25 00:41:00,
2013-11-24 16:51:00,33.1,24.4,30.40,WNW,302,2.0,4.0,70,0.00,,,0.00,Wunderground v.1.15,2013-11-25 00:51:00,
2013-11-24 17:01:00,33.1,24.4,30.40,WNW,298,4.0,4.0,70,0.00,,,0.00,Wunderground v.1.15,2013-11-25 01:01:00,
2013-11-24 17:11:00,33.2,24.1,30.40,WNW,296,4.0,4.0,69,0.00,,,0.00,Wunderground v.1.15,2013-11-25 01:11:00,
2013-11-24 17:21:00,33.2,24.1,30.39,WNW,303,3.0,3.0,69,0.00,,,0.00,Wunderground v.1.15,2013-11-25 01:21:00,
2013-11-24 17:31:00,33.0,23.9,30.40,NW,307,0.0,0.0,69,0.00,,,0.00,Wunderground v.1.15,2013-11-25 01:31:00,
2013-11-24 17:41:00,32.6,23.6,30.40,NW,307,0.0,0.0,69,0.00,,,0.00,Wunderground v.1.15,2013-11-25 01:41:00,
2013-11-24 17:52:00,32.2,23.5,30.41,WNW,300,1.0,3.0,70,0.00,,,0.00,Wunderground v.1.15,2013-11-25 01:52:00,
2013-11-24 18:01:00,31.9,23.6,30.40,NW,306,4.0,4.0,71,0.00,,,0.00,Wunderground v.1.15,2013-11-25 02:01:00,
2013-11-24 18:11:00,32.1,24.4,30.41,WNW,302,5.0,5.0,73,0.00,,,0.00,Wunderground v.1.15,2013-11-25 02:11:00,
2013-11-24 18:21:00,32.2,24.5,30.41,WNW,299,5.0,5.0,73,0.00,,,0.00,Wunderground v.1.15,2013-11-25 02:21:00,
2013-11-24 18:31:00,32.3,24.3,30.41,NW,306,4.0,4.0,72,0.00,,,0.00,Wunderground v.1.15,2013-11-25 02:31:00,
2013-11-24 18:41:00,32.1,24.4,30.42,NW,313,3.0,3.0,73,0.00,,,0.00,Wunderground v.1.15,2013-11-25 02:41:00,
2013-11-24 18:51:00,31.6,23.9,30.42,NW,321,3.0,3.0,73,0.00,,,0.00,Wunderground v.1.15,2013-11-25 02:51:00,
2013-11-24 19:01:00,31.0,23.7,30.42,NW,320,2.0,2.0,74,0.00,,,0.00,Wunderground v.1.15,2013-11-25 03:01:00,
2013-11-24 19:11:00,30.9,23.9,30.42,NW,317,3.0,3.0,75,0.00,,,0.00,Wunderground v.1.15,2013-11-25 03:11:00,
2013-11-24 19:21:00,30.8,23.5,30.42,NW,324,1.0,1.0,74,0.00,,,0.00,Wunderground v.1.15,2013-11-25 03:21:00,
2013-11-24 19:31:00,30.0,23.0,30.42,NW,319,0.0,0.0,75,0.00,,,0.00,Wunderground v.1.15,2013-11-25 03:31:00,
2013-11-24 19:41:00,30.0,23.4,30.42,NW,320,0.0,0.0,76,0.00,,,0.00,Wunderground v.1.15,2013-11-25 03:41:00,
2013-11-24 19:51:00,29.9,23.3,30.43,NW,320,0.0,0.0,76,0.00,,,0.00,Wunderground v.1.15,2013-11-25 03:51:00,
2013-11-24 20:01:00,29.4,22.8,30.43,NW,321,0.0,0.0,76,0.00,,,0.00,Wunderground v.1.15,2013-11-25 04:01:00,
2013-11-24 20:12:00,28.8,22.2,30.43,NW,321,0.0,0.0,76,0.00,,,0.00,Wunderground v.1.15,2013-11-25 04:12:00,
2013-11-24 20:21:00,28.4,22.4,30.43,NW,321,0.0,0.0,78,0.00,,,0.00,Wunderground v.1.15,2013-11-25 04:21:00,
2013-11-24 20:31:00,28.1,22.1,30.44,NW,325,0.0,0.0,78,0.00,,,0.00,Wunderground v.1.15,2013-11-25 04:31:00,
2013-11-24 20:42:00,27.4,21.1,30.44,NW,325,0.0,0.0,77,0.00,,,0.00,Wunderground v.1.15,2013-11-25 04:42:00,
2013-11-24 20:51:00,26.5,20.6,30.44,NNW,330,0.0,0.0,78,0.00,,,0.00,Wunderground v.1.15,2013-11-25 04:51:00,
2013-11-24 21:01:00,26.4,21.4,30.44,NNW,330,0.0,0.0,81,0.00,,,0.00,Wunderground v.1.15,2013-11-25 05:01:00,
2013-11-24 21:11:00,26.5,21.7,30.44,NNW,330,0.0,0.0,82,0.00,,,0.00,Wunderground v.1.15,2013-11-25 05:11:00,
2013-11-24 21:21:00,26.9,22.4,30.44,NNW,330,0.0,0.0,83,0.00,,,0.00,Wunderground v.1.15,2013-11-25 05:21:00,
2013-11-24 21:31:00,27.4,22.9,30.45,NNW,330,0.0,0.0,83,0.00,,,0.00,Wunderground v.1.15,2013-11-25 05:31:00,
2013-11-24 21:41:00,27.5,22.7,30.45,NNW,330,0.0,0.0,82,0.00,,,0.00,Wunderground v.1.15,2013-11-25 05:41:00,
2013-11-24 21:51:00,27.7,22.9,30.46,NNW,330,0.0,0.0,82,0.00,,,0.00,Wunderground v.1.15,2013-11-25 05:51:00,
2013-11-24 22:02:00,28.1,23.3,30.46,NNW,330,0.0,0.0,82,0.00,,,0.00,Wunderground v.1.15,2013-11-25 06:02:00,
2013-11-24 22:11:00,28.8,23.7,30.46,NNW,330,0.0,0.0,81,0.00,,,0.00,Wunderground v.1.15,2013-11-25 06:11:00,
2013-11-24 22:21:00,29.2,23.8,30.46,NNW,330,0.0,0.0,80,0.00,,,0.00,Wunderground v.1.15,2013-11-25 06:21:00,
2013-11-24 22:32:00,29.4,23.7,30.46,NNE,27,0.0,0.0,79,0.00,,,0.00,Wunderground v.1.15,2013-11-25 06:32:00,
2013-11-24 22:41:00,29.4,23.7,30.47,NNE,28,0.0,0.0,79,0.00,,,0.00,Wunderground v.1.15,2013-11-25 06:41:00,
2013-11-24 22:51:00,29.3,23.6,30.47,NNE,28,0.0,0.0,79,0.00,,,0.00,Wunderground v.1.15,2013-11-25 06:51:00,
2013-11-24 23:01:00,29.0,23.3,30.47,NNE,28,0.0,0.0,79,0.00,,,0.00,Wunderground v.1.15,2013-11-25 07:01:00,
2013-11-24 23:11:00,28.5,22.8,30.47,NNE,28,0.0,0.0,79,0.00,,,0.00,Wunderground v.1.15,2013-11-25 07:11:00,
2013-11-24 23:21:00,28.3,23.2,30.47,NNE,28,0.0,0.0,81,0.00,,,0.00,Wunderground v.1.15,2013-11-25 07:21:00,
2013-11-24 23:31:00,28.5,23.4,30.47,NNE,28,0.0,0.0,81,0.00,,,0.00,Wunderground v.1.15,2013-11-25 07:31:00,
2013-11-24 23:41:00,28.8,23.7,30.47,NNE,28,0.0,0.0,81,0.00,,,0.00,Wunderground v.1.15,2013-11-25 07:41:00,
2013-11-24 23:51:00,28.9,23.8,30.47,NNE,28,0.0,0.0,81,0.00,,,0.00,Wunderground v.1.15,2013-11-25 07:51:00,